Regional Weather Roundup
Issued by NWS

Home | Current Version | Previous Version | Text Only | Print | Product List | Glossary On
Versions: 1 2 3 4 5 6 7 8 9 10 11 12 13 14 15 16 17 18 19 20 21 22 23 24 25 26 27 28 29 30 31 32 33 34 35 36 37 38 39 40 41 42 43 44 45 46 47 48 49 50
000
ASUS42 KKEY 030410
RWRKEY

FLORIDA REGIONAL WEATHER ROUNDUP FOR THE FLORIDA KEYS
NATIONAL WEATHER SERVICE KEY WEST FLORIDA
1200 AM EDT THU SEP 03 2015

...SOUTH FLORIDA AND THE KEYS...

CITY           SKY/WX    TMP DP  RH WIND       PRES   REMARKS
FORT MYERS     MOCLDY    79  74  84 SE3       30.02S
SW REGIONAL AP CLOUDY    79  75  87 SW5       30.02S
NAPLES         CLOUDY    83  75  77 CALM      30.02S HX  90
MIAMI          PTCLDY    83  77  82 SE5       30.02S HX  92
WEST KENDALL   PTCLDY    79  77  94 W3        30.03S
HOMESTEAD      CLEAR     81  76  86 W3        30.02S
MARATHON       PTCLDY    85  78  80 E5        30.02R HX  96
BOCA CHICA NAS CLEAR     85  76  74 E7        30.02R HX  94
KEY WEST INTL  CLEAR     85  77  77 E5        30.02R HX  95

...INTERNATIONAL WEATHER...

CITY           SKY/WX    TMP DP  RH WIND       PRES   REMARKS
NASSAU BAHAMAS PTCLDY    82  75  78 CALM      30.03S
CANCUN MEXICO  PTCLDY    77  77 100 CALM      29.99R
COZUMEL MEXICO TSTM      75  73  94 E13       30.01  VSB 1

ADJACENT COASTAL WATERS...

STATION/POSITION TIME  SKY/WX   TEMP    WIND        PRES    WAVE
                                AIR SEA DIR/SP/G            HT/PER
                 (UTC)          (F)     (DEG/KT/KT) (MB)    (FT/S)
PULASKI SHOAL LI 0300                                 N/A
SAND KEY         0350            86      90/  9     1016.6R
SOMBRERO KEY     NOT AVBL
LONG KEY         0300            85 89  100/  7/  8 1017.2R
MOLASSES REEF    0400            85 87  110/  6/  7 1016.8R
FOWEY ROCKS      NOT AVBL

$$


USA.gov is the U.S. government's official web portal to all federal, state and local government web resources and services.